| time (UTC) | temp F | wind direction | speed knots | gust knots | rain 1hr in | rain 24hr in | rain mn in | humidity % | barometer mb |
| 20260509030400 | 54 | 80 | 5.2 | 0.0 | 0.00 | 0.00 | 0.00 | 100 | 1014.0 |
| 20260509024850 | 54 | 150 | 6.1 | 0.0 | 0.00 | 0.00 | 0.00 | 100 | 1016.0 |
| 20260509023356 | 54 | 150 | 6.1 | 0.0 | 0.00 | 0.00 | 0.00 | 100 | 1016.0 |
| 20260509021856 | 0 | 0.0 | 0.0 | 0.00 | 0.00 | 0.00 | |||
| 20260509020400 | 0 | 0.0 | 0.0 | 0.00 | 0.00 | 0.00 | |||
| 20260509014857 | 55 | 140 | 7.8 | 0.0 | 0.00 | 0.00 | 0.00 | 100 | 1015.0 |
| 20260509013357 | 55 | 140 | 7.8 | 0.0 | 0.00 | 0.00 | 0.00 | 100 | 1015.0 |
| 20260509011857 | 55 | 140 | 7.8 | 0.0 | 0.00 | 0.00 | 0.00 | 100 | 1015.0 |
| 20260509010359 | 55 | 140 | 7.8 | 0.0 | 0.00 | 0.00 | 0.00 | 100 | 1015.0 |
| 20260509004859 | 55 | 140 | 7.8 | 0.0 | 0.00 | 0.00 | 0.00 | 100 | 1015.0 |
| 20260509003359 | 55 | 160 | 7.8 | 0.0 | 0.00 | 0.00 | 0.00 | 94 | 1015.0 |
| 20260509001857 | 55 | 160 | 7.8 | 0.0 | 0.00 | 0.00 | 0.00 | 94 | 1015.0 |
| 20260509000359 | 55 | 160 | 7.8 | 0.0 | 0.00 | 0.00 | 0.00 | 94 | 1015.0 |
| 20260508234856 | 54 | 120 | 9.6 | 0.0 | 0.00 | 0.00 | 0.00 | 100 | 1015.0 |
| 20260508233359 | 54 | 120 | 9.6 | 0.0 | 0.00 | 0.00 | 0.00 | 100 | 1015.0 |
| 20260508231857 | 54 | 120 | 9.6 | 0.0 | 0.00 | 0.00 | 0.00 | 100 | 1015.0 |
| 20260508230400 | 0 | 0.0 | 0.0 | 0.00 | 0.00 | 0.00 | |||
| 20260508224856 | 54 | 120 | 12.2 | 0.0 | 0.00 | 0.00 | 0.00 | 100 | 1015.0 |
| 20260508223400 | 54 | 120 | 12.2 | 0.0 | 0.00 | 0.00 | 0.00 | 100 | 1015.0 |
| 20260508221857 | 54 | 120 | 12.2 | 0.0 | 0.00 | 0.00 | 0.00 | 100 | 1015.0 |
| 20260508220400 | 54 | 120 | 12.2 | 0.0 | 0.00 | 0.00 | 0.00 | 100 | 1015.0 |
| 20260508214859 | 54 | 120 | 12.2 | 0.0 | 0.00 | 0.00 | 0.00 | 100 | 1015.0 |
| 20260508213359 | 54 | 120 | 13.9 | 0.0 | 0.00 | 0.00 | 0.00 | 94 | 1015.0 |
| 20260508211856 | 54 | 120 | 13.9 | 0.0 | 0.00 | 0.00 | 0.00 | 94 | 1015.0 |
| 20260508210359 | 54 | 120 | 13.9 | 0.0 | 0.00 | 0.00 | 0.00 | 94 | 1015.0 |
| 20260508204853 | 0 | 0.0 | 0.0 | 0.00 | 0.00 | 0.00 | |||
| 20260508203357 | 0 | 0.0 | 0.0 | 0.00 | 0.00 | 0.00 | |||
| 20260508201854 | 0 | 0.0 | 0.0 | 0.00 | 0.00 | 0.00 | |||
| 20260508200356 | 0 | 0.0 | 0.0 | 0.00 | 0.00 | 0.00 | |||
| 20260508194854 | 54 | 110 | 13.0 | 0.0 | 0.00 | 0.00 | 0.00 | 94 | 1015.0 |
| 20260508193400 | 54 | 110 | 13.0 | 0.0 | 0.00 | 0.00 | 0.00 | 94 | 1015.0 |
| 20260508191857 | 54 | 110 | 13.0 | 0.0 | 0.00 | 0.00 | 0.00 | 94 | 1015.0 |
| 20260508190400 | 54 | 110 | 13.0 | 0.0 | 0.00 | 0.00 | 0.00 | 94 | 1015.0 |
| 20260508184859 | 57 | 110 | 13.9 | 0.0 | 0.00 | 0.00 | 0.00 | 88 | 1014.0 |
| 20260508183400 | 57 | 110 | 13.9 | 0.0 | 0.00 | 0.00 | 0.00 | 88 | 1014.0 |
| 20260508181903 | 57 | 110 | 13.9 | 0.0 | 0.00 | 0.00 | 0.00 | 88 | 1014.0 |
| 20260508180359 | 57 | 110 | 13.9 | 0.0 | 0.00 | 0.00 | 0.00 | 88 | 1014.0 |
| 20260508174857 | 63 | 110 | 9.6 | 0.0 | 0.00 | 0.00 | 0.00 | 77 | 1014.0 |
| 20260508173359 | 63 | 110 | 9.6 | 0.0 | 0.00 | 0.00 | 0.00 | 77 | 1014.0 |
| 20260508171900 | 63 | 110 | 9.6 | 0.0 | 0.00 | 0.00 | 0.00 | 77 | 1014.0 |
| 20260508170400 | 63 | 110 | 9.6 | 0.0 | 0.00 | 0.00 | 0.00 | 77 | 1014.0 |
| 20260508164900 | 66 | 120 | 14.8 | 0.0 | 0.00 | 0.00 | 0.00 | 73 | 1014.0 |
| 20260508163400 | 66 | 120 | 14.8 | 0.0 | 0.00 | 0.00 | 0.00 | 73 | 1014.0 |
| 20260508161859 | 66 | 120 | 14.8 | 0.0 | 0.00 | 0.00 | 0.00 | 73 | 1014.0 |
| 20260508160359 | 66 | 120 | 14.8 | 0.0 | 0.00 | 0.00 | 0.00 | 73 | 1014.0 |
| 20260508154900 | 70 | 110 | 13.9 | 0.0 | 0.00 | 0.00 | 0.00 | 73 | 1014.0 |
| 20260508153359 | 70 | 110 | 13.9 | 0.0 | 0.00 | 0.00 | 0.00 | 73 | 1014.0 |
| 20260508151900 | 70 | 110 | 13.9 | 0.0 | 0.00 | 0.00 | 0.00 | 73 | 1014.0 |
| 20260508150400 | 70 | 110 | 13.9 | 0.0 | 0.00 | 0.00 | 0.00 | 73 | 1014.0 |
| 20260508144900 | 77 | 60 | 5.2 | 0.0 | 0.00 | 0.00 | 0.00 | 54 | 1014.0 |
| 20260508143359 | 77 | 60 | 5.2 | 0.0 | 0.00 | 0.00 | 0.00 | 54 | 1014.0 |
| 20260508141900 | 77 | 60 | 5.2 | 0.0 | 0.00 | 0.00 | 0.00 | 54 | 1014.0 |
| 20260508140359 | 77 | 60 | 5.2 | 0.0 | 0.00 | 0.00 | 0.00 | 54 | 1014.0 |
| 20260508135023 | 0 | 0.0 | 0.0 | 0.00 | 0.00 | 0.00 | |||
| 20260508133356 | 77 | 60 | 5.2 | 0.0 | 0.00 | 0.00 | 0.00 | 54 | 1015.0 |
| 20260508131900 | 77 | 60 | 5.2 | 0.0 | 0.00 | 0.00 | 0.00 | 54 | 1015.0 |
| 20260508130400 | 77 | 60 | 5.2 | 0.0 | 0.00 | 0.00 | 0.00 | 54 | 1015.0 |
| 20260508124859 | 75 | 120 | 7.0 | 0.0 | 0.00 | 0.00 | 0.00 | 57 | 1015.0 |
| 20260508123359 | 75 | 120 | 7.0 | 0.0 | 0.00 | 0.00 | 0.00 | 57 | 1015.0 |
| 20260508121907 | 75 | 120 | 7.0 | 0.0 | 0.00 | 0.00 | 0.00 | 57 | 1015.0 |
| 20260508120359 | 75 | 120 | 7.0 | 0.0 | 0.00 | 0.00 | 0.00 | 57 | 1015.0 |
| 20260508114859 | 73 | 140 | 6.1 | 0.0 | 0.00 | 0.00 | 0.00 | 61 | 1016.0 |
| 20260508113359 | 73 | 140 | 6.1 | 0.0 | 0.00 | 0.00 | 0.00 | 61 | 1016.0 |
| 20260508111900 | 73 | 140 | 6.1 | 0.0 | 0.00 | 0.00 | 0.00 | 61 | 1016.0 |
| 20260508110359 | 73 | 140 | 6.1 | 0.0 | 0.00 | 0.00 | 0.00 | 61 | 1016.0 |
| 20260508104858 | 72 | 140 | 6.1 | 0.0 | 0.00 | 0.00 | 0.00 | 61 | 1016.0 |
| 20260508103422 | 0 | 0.0 | 0.0 | 0.00 | 0.00 | 0.00 | |||
| 20260508101900 | 72 | 140 | 6.1 | 0.0 | 0.00 | 0.00 | 0.00 | 61 | 1016.0 |
| 20260508100400 | 72 | 140 | 6.1 | 0.0 | 0.00 | 0.00 | 0.00 | 61 | 1016.0 |
| 20260508094900 | 68 | 120 | 7.8 | 0.0 | 0.00 | 0.00 | 0.00 | 69 | 1016.0 |
| 20260508093400 | 68 | 120 | 7.8 | 0.0 | 0.00 | 0.00 | 0.00 | 69 | 1016.0 |
| 20260508091859 | 68 | 120 | 7.8 | 0.0 | 0.00 | 0.00 | 0.00 | 69 | 1016.0 |
| 20260508090359 | 68 | 120 | 7.8 | 0.0 | 0.00 | 0.00 | 0.00 | 69 | 1016.0 |
| 20260508084859 | 61 | 130 | 6.1 | 0.0 | 0.00 | 0.00 | 0.00 | 77 | 1017.0 |
| 20260508083359 | 61 | 130 | 6.1 | 0.0 | 0.00 | 0.00 | 0.00 | 77 | 1017.0 |
| 20260508081900 | 61 | 130 | 6.1 | 0.0 | 0.00 | 0.00 | 0.00 | 77 | 1017.0 |
| 20260508080359 | 61 | 130 | 6.1 | 0.0 | 0.00 | 0.00 | 0.00 | 77 | 1017.0 |
| 20260508074856 | 59 | 150 | 7.8 | 0.0 | 0.00 | 0.00 | 0.00 | 77 | 1017.0 |
| 20260508073400 | 59 | 150 | 7.8 | 0.0 | 0.00 | 0.00 | 0.00 | 77 | 1017.0 |
| 20260508071857 | 59 | 150 | 7.8 | 0.0 | 0.00 | 0.00 | 0.00 | 77 | 1017.0 |
| 20260508070400 | 59 | 150 | 7.8 | 0.0 | 0.00 | 0.00 | 0.00 | 77 | 1017.0 |
| 20260508064900 | 57 | 140 | 7.8 | 0.0 | 0.00 | 0.00 | 0.00 | 82 | 1016.0 |
| 20260508063400 | 57 | 140 | 7.8 | 0.0 | 0.00 | 0.00 | 0.00 | 82 | 1016.0 |
| 20260508061856 | 57 | 140 | 7.8 | 0.0 | 0.00 | 0.00 | 0.00 | 82 | 1016.0 |
| 20260508060400 | 57 | 140 | 7.8 | 0.0 | 0.00 | 0.00 | 0.00 | 82 | 1016.0 |
| 20260508054857 | 54 | 120 | 9.6 | 0.0 | 0.00 | 0.00 | 0.00 | 94 | 1016.0 |
| 20260508053359 | 54 | 120 | 9.6 | 0.0 | 0.00 | 0.00 | 0.00 | 94 | 1016.0 |
| 20260508051900 | 54 | 120 | 9.6 | 0.0 | 0.00 | 0.00 | 0.00 | 94 | 1016.0 |
| 20260508050400 | 54 | 120 | 9.6 | 0.0 | 0.00 | 0.00 | 0.00 | 94 | 1016.0 |
| 20260508044900 | 50 | 120 | 9.6 | 0.0 | 0.00 | 0.00 | 0.00 | 100 | 1016.0 |
| 20260508043400 | 50 | 120 | 9.6 | 0.0 | 0.00 | 0.00 | 0.00 | 100 | 1016.0 |
| 20260508041855 | 50 | 120 | 9.6 | 0.0 | 0.00 | 0.00 | 0.00 | 100 | 1016.0 |
| 20260508040401 | 50 | 120 | 9.6 | 0.0 | 0.00 | 0.00 | 0.00 | 100 | 1016.0 |
| 20260508034855 | 50 | 120 | 7.8 | 0.0 | 0.00 | 0.00 | 0.00 | 100 | 1016.0 |
| 20260508033400 | 50 | 120 | 7.8 | 0.0 | 0.00 | 0.00 | 0.00 | 100 | 1016.0 |
| 20260508031857 | 50 | 120 | 7.8 | 0.0 | 0.00 | 0.00 | 0.00 | 100 | 1016.0 |